Zurück zum Katalog

SL-12 DEB

AktivHEO
NORAD 39801·DEBRIS·🇷🇺 Russia

Gestartet Sep 25, 2008 von Baikonur Cosmodrome

Loading…

Nächste Überflüge (nächste 24 Stunden)

TLE

AktuellSource: Space-Track

Epoche: Sep 10, 2026, 03:31 UTC

1 39801U 08046N   26253.14689442  .00000654  00000-0  40043-3 0  9994
2 39801  65.0140  97.8180 5497004 230.1169  67.0629  4.71436433205230

Verfolge SL-12 DEB in Echtzeit mit AllMySat

Download on the App Store